[[{"header":{"parameterUnit":"m.s-1","parameterCategory":1,"la1":30.2991,"la2":30.254,"lo1":-89.0895,"lo2":-89.0444,"dy":0.0017,"dx":0.0017,"nx":28,"ny":28,"refTime":"2023-10-23T21:00:00:Z","depth":0,"parameterNumber":2,"parameterNumberName":"U-component_of_WINDS"},"data":[0,0,0,0,0,0,0,0,0,0,0,0,0,0,0,0,0,0,0,0,0,0,0,0,0,0,0,0,0,0,0,0,0,0,0,0,0,0,0,0,0,0,0,0,0,0,0,0,0,0,0,0,0,0,0,0,0,0,-3.9548,-3.9548,0,-3.9551,-3.9551,-3.9551,-3.9406,-3.9403,-3.9399,-3.9395,-3.9397,-3.9401,-3.9404,0,0,0,0,0,0,0,0,0,0,0,0,0,-3.9422,-3.9425,-3.9548,-3.9548,-3.9548,-3.9551,-3.9551,-3.9551,-3.9407,-3.9403,-3.9398,-3.9394,-3.9396,-3.94,-3.9405,0,0,0,0,0,0,0,0,0,0,0,0,0,-3.9456,-3.9426,-3.9548,-3.9477,-3.9471,-3.9551,-3.9551,-3.9551,-3.9408,-3.9402,-3.9397,-3.9391,-3.9395,-3.94,-3.9405,-3.9553,0,0,-3.9422,-3.9424,0,0,0,0,0,0,0,0,-3.9454,-3.9461,-3.9487,-3.9482,-3.9475,-3.9472,-3.9507,-3.9552,-3.941,-3.9432,-3.9395,-3.9389,-3.9427,-3.9429,-3.9442,-3.9553,-3.9553,-3.9422,-3.9426,-3.9428,-3.9429,0,0,0,0,0,0,0,-3.9452,-3.946,-3.9549,-3.9488,-3.9481,-3.9446,-3.9444,-3.9515,-3.9461,-3.9429,-3.9419,-3.9421,-3.9422,-3.9437,-3.9441,-3.9553,-3.9422,-3.9427,-3.943,-3.9432,-3.979,-3.9796,0,0,0,0,0,0,-3.946,-3.9459,-3.9549,-3.9549,-3.9451,-3.9453,-3.9451,-3.9479,-3.946,-3.9452,-3.9426,-3.9415,-3.9431,-3.9435,-3.9441,-3.9614,-3.9428,-3.9433,-3.9436,-3.9784,-3.9792,-3.9798,0,0,0,0,0,0,-3.9457,-3.9469,-3.9549,-3.9501,-3.9509,-3.9461,-3.9494,-3.9482,-3.9497,-3.9458,-3.9448,-3.9451,-3.9427,-3.9433,-3.9527,-3.9612,-3.9435,-3.944,-3.9777,-3.9786,-3.9795,-3.9962,0,0,0,0,0,0,-3.9454,-3.9469,-3.9524,-3.9504,-3.9512,-3.9635,-3.9499,-3.9486,-3.9507,-3.9491,-3.9478,-3.9471,-3.9423,-3.952,-3.9533,-3.9617,-3.9445,-3.9769,-3.9781,-3.9792,-3.9949,-3.9976,-4.0,0,0,0,0,0,-3.945,-3.957,-3.9527,-3.9539,-3.9579,-3.964,-3.9645,-3.9587,-3.9514,-3.9569,-3.9545,-3.9471,-3.9602,-3.9531,-3.9544,-3.9631,-3.9763,-3.9777,-3.9791,-3.9937,-3.9971,-3.9999,0,0,0,0,0,0,-3.9599,-3.9565,-3.9518,-3.9634,-3.9641,-3.9615,-3.9682,-3.9623,-3.9651,-3.9635,-3.9563,-3.9561,-3.9668,-3.9659,-3.958,-3.9775,-3.967,-3.9687,-3.9776,-3.9808,-3.9833,-3.9832,-3.9449,0,0,0,0,0,-3.9646,-3.9697,-3.9665,-3.9771,-3.9777,-3.9731,-3.9754,-3.971,-3.9714,-3.9716,-3.9698,-3.9706,-3.9749,-3.9778,-3.9815,-3.9948,-3.9944,-4.0015,-4.004,-4.0061,-4.0077,-4.0149,-4.0181,-3.9845,-3.9844,-3.9844,0,0,-3.9741,-3.973,-3.9766,-3.9801,-3.9801,-3.9857,-3.9733,-3.9797,-3.9838,-3.9725,-3.9813,-3.9802,-3.9806,-3.9921,-3.9971,-3.9917,-4.0169,-4.0079,-4.0096,-4.01,-4.0167,-4.0199,-4.0227,-3.9854,-3.9852,-3.9851,0,0,-3.9944,-3.9941,-4.0029,-4.0034,-4.0037,-4.0005,-4.0028,-4.0012,-4.0,-4.0088,-4.0006,-4.0055,-4.0129,-4.0136,-4.015,-4.0363,-4.0297,-4.0378,-4.0509,-4.0581,-4.0607,-4.063,-4.0708,-4.0736,-4.0393,-4.0394,-4.0394,0,-4.0063,-4.0144,-4.0082,-4.0153,-4.0172,-4.0075,-4.0166,-4.0173,-4.0188,-4.0203,-4.0143,-4.0238,-4.0233,-4.035,-4.0403,-4.0417,-4.0441,-4.0377,-4.0609,-4.0631,-4.0652,-4.0724,-4.0754,-4.0404,-4.0402,-4.0401,-4.04,0,-4.029,-4.0348,-4.042,-4.0439,-4.0466,-4.0546,-4.0499,-4.0534,-4.049,-4.0466,-4.0559,-4.0551,-4.0586,-4.0611,-4.0567,-4.0723,-4.069,-4.0621,-4.0513,-4.0695,-4.0762,-4.0789,-4.0418,-4.0414,-4.0411,-4.0409,0,0,-4.0581,-4.057,-4.0597,-4.0606,-4.0605,-4.0649,-4.0728,-4.0763,-4.0796,-4.0811,-4.0875,-4.0944,-4.0882,-4.0897,-4.0854,-4.0917,-4.1089,-4.084,-4.0839,-4.0887,-4.1263,-4.1315,-4.1348,-4.1047,-4.1052,-4.1056,-4.1263,0,-4.0778,-4.091,-4.086,-4.0996,-4.105,-4.0963,-4.1031,-4.1039,-4.1021,-4.1065,-4.1044,-4.1094,-4.1007,-4.1017,-4.1076,-4.1056,-4.1164,-4.104,-4.1106,-4.1109,-4.1107,-4.1382,-4.1436,-4.1631,-4.1289,-4.1293,-4.1296,0,-4.1024,-4.1052,-4.1194,-4.1188,-4.1209,-4.1271,-4.1302,-4.1346,-4.1355,-4.1337,-4.1358,-4.1303,-4.1381,-4.1276,-4.1383,-4.1301,-4.1326,-4.1321,-4.1327,-4.133,-4.1212,-4.1392,-4.1692,-4.1722,-4.1337,-4.1334,-4.1331,0,-4.1223,-4.1297,-4.1391,-4.1402,-4.1397,-4.1444,-4.1444,-4.1447,-4.1474,-4.1502,-4.1519,-4.1556,-4.1576,-4.1606,-4.1563,-4.1491,-4.1678,-4.1569,-4.1666,-4.1668,-4.1707,-4.1705,-4.2015,-4.1726,-4.1726,-4.1725,-4.1725,0,-4.1447,-4.1538,-4.1481,-4.1539,-4.164,-4.1584,-4.1684,-4.1675,-4.168,-4.1736,-4.1663,-4.1718,-4.1658,-4.1708,-4.1676,-4.1771,-4.178,-4.1769,-4.1759,-4.1775,-4.1776,-4.1788,-4.1773,-4.1733,-4.1731,-4.173,-4.1728,0,-4.1684,-4.165,-4.1748,-4.1738,-4.1738,-4.1812,-4.1803,-4.1858,-4.1836,-4.1909,-4.1923,-4.189,-4.1945,-4.1906,-4.1961,-4.1939,-4.2065,-4.2036,-4.2062,-4.2053,-4.2153,-4.2144,-4.248,-4.2522,-4.2208,-4.2211,-4.2213,0,-4.1828,-4.1896,-4.1895,-4.1928,-4.1933,-4.1987,-4.2015,-4.1965,-4.1997,-4.2016,-4.2069,-4.2118,-4.2155,-4.2248,-4.2229,-4.2272,-4.2243,-4.2359,-4.2249,-4.2264,-4.2245,-4.2241,-4.2248,-4.238,-4.2383,-4.2386,-4.2389,0,-4.2088,-4.207,-4.2112,-4.2152,-4.2187,-4.2215,-4.2237,-4.2269,-4.2218,-4.2259,-4.2315,-4.2344,-4.2402,-4.2453,-4.249,-4.2491,-4.2433,-4.2425,-4.2449,-4.2465,-4.2477,-4.2472,-4.2121,-4.2416,-4.2413,-4.2411,-4.241,-4.2409,-4.2282,-4.234,-4.235,-4.2401,-4.2413,-4.2437,-4.2489,-4.2476,-4.2523,-4.2566,-4.2535,-4.2603,-4.2615,-4.2658,-4.2668,-4.2721,-4.2674,-4.271,-4.2719,-4.2728,-4.2742,-4.2471,-4.2728,-4.2727,-4.2726,-4.2726,-4.2725,0,-4.2538,-4.2542,-4.259,-4.2625,-4.2667,-4.2611,-4.2634,-4.2673,-4.2734,-4.275,-4.279,-4.2857,-4.2908,-4.2895,-4.2941,-4.2987,-4.2962,-4.3001,-4.2996,-4.2998,-4.2781,-4.2755,-4.3021,-4.302,-4.302,-4.302,-4.302,-4.302,-4.2676,-4.2772,-4.2756,-4.2858,-4.286,-4.2927,-4.2946,-4.2969,-4.2982,-4.3061,-4.3103,-4.3096,-4.3102,-4.3149,-4.3194,-4.3189,-4.3209,-4.3258,-4.3244,-4.3042,-4.3012,-4.2984,-4.2959,-4.3263,-4.3263,-4.3455,-4.3457,-4.3458]},{"header":{"parameterUnit":"m.s-1","parameterCategory":1,"la1":30.2991,"la2":30.254,"lo1":-89.0895,"lo2":-89.0444,"dy":0.0017,"dx":0.0017,"nx":28,"ny":28,"refTime":"2023-10-23T21:00:00:Z","depth":0,"parameterNumber":3,"parameterNumberName":"V-component_of_WINDS"},"data":[0,0,0,0,0,0,0,0,0,0,0,0,0,0,0,0,0,0,0,0,0,0,0,0,0,0,0,0,0,0,0,0,0,0,0,0,0,0,0,0,0,0,0,0,0,0,0,0,0,0,0,0,0,0,0,0,0,0,0.3349,0.3349,0,0.335,0.335,0.335,0.3292,0.329,0.3289,0.3288,0.3288,0.3289,0.3291,0,0,0,0,0,0,0,0,0,0,0,0,0,0.33,0.3301,0.3349,0.3349,0.3349,0.335,0.335,0.335,0.3292,0.329,0.3289,0.3287,0.3288,0.3289,0.3291,0,0,0,0,0,0,0,0,0,0,0,0,0,0.3313,0.3301,0.3349,0.332,0.3318,0.335,0.335,0.335,0.3293,0.329,0.3288,0.3286,0.3287,0.3289,0.3291,0.335,0,0,0.3298,0.3299,0,0,0,0,0,0,0,0,0.3312,0.3315,0.3324,0.3322,0.3319,0.3318,0.3332,0.335,0.3293,0.3302,0.3287,0.3285,0.33,0.3301,0.3306,0.335,0.335,0.3298,0.3299,0.33,0.3301,0,0,0,0,0,0,0,0.3311,0.3314,0.3349,0.3325,0.3322,0.3308,0.3308,0.3335,0.3314,0.3301,0.3297,0.3298,0.3298,0.3304,0.3306,0.335,0.3298,0.33,0.3301,0.3302,0.3448,0.345,0,0,0,0,0,0,0.3314,0.3314,0.3349,0.3349,0.331,0.3311,0.331,0.3321,0.3313,0.331,0.33,0.3295,0.3302,0.3303,0.3305,0.3377,0.33,0.3302,0.3303,0.3445,0.3448,0.3451,0,0,0,0,0,0,0.3313,0.3318,0.3349,0.333,0.3333,0.3314,0.3327,0.3322,0.3328,0.3312,0.3308,0.331,0.33,0.3302,0.3341,0.3376,0.3303,0.3305,0.3442,0.3446,0.345,0.352,0,0,0,0,0,0,0.3312,0.3318,0.3339,0.3331,0.3335,0.3384,0.3329,0.3324,0.3332,0.3326,0.3321,0.3318,0.3298,0.3338,0.3343,0.3378,0.3307,0.3439,0.3444,0.3449,0.3514,0.3525,0.3535,0,0,0,0,0,0.3311,0.3358,0.334,0.3345,0.3361,0.3386,0.3387,0.3364,0.3335,0.3357,0.3348,0.3318,0.3372,0.3342,0.3347,0.3384,0.3437,0.3443,0.3448,0.3509,0.3523,0.3535,0,0,0,0,0,0,0.3369,0.3356,0.3337,0.3382,0.3386,0.3376,0.3403,0.3379,0.339,0.3384,0.3355,0.3354,0.3398,0.3394,0.3362,0.3443,0.3399,0.3406,0.3444,0.3457,0.3467,0.3468,0.3309,0,0,0,0,0,0.3387,0.3408,0.3395,0.3437,0.344,0.3422,0.3431,0.3414,0.3416,0.3417,0.341,0.3413,0.3431,0.3443,0.3459,0.3513,0.3513,0.3541,0.3552,0.356,0.3567,0.36,0.3613,0.347,0.347,0.347,0,0,0.3425,0.342,0.3435,0.3449,0.3449,0.3473,0.3423,0.3449,0.3467,0.342,0.3457,0.3453,0.3455,0.3503,0.3523,0.3501,0.3607,0.3568,0.3575,0.3577,0.3607,0.3621,0.3633,0.3474,0.3474,0.3473,0,0,0.3506,0.3504,0.354,0.3542,0.3544,0.3533,0.3542,0.3536,0.3532,0.3568,0.3536,0.3557,0.3587,0.3591,0.3597,0.3686,0.366,0.3691,0.3747,0.3779,0.379,0.38,0.3835,0.3847,0.3698,0.3698,0.3698,0,0.3552,0.3586,0.3561,0.3591,0.36,0.3561,0.3599,0.3602,0.3609,0.3617,0.3592,0.3632,0.3631,0.3681,0.3703,0.3708,0.372,0.3692,0.379,0.38,0.3809,0.3842,0.3854,0.3702,0.3702,0.3701,0.3701,0,0.3645,0.367,0.3699,0.3709,0.372,0.3754,0.3736,0.3751,0.3734,0.3725,0.3765,0.3762,0.3778,0.3789,0.377,0.3838,0.3824,0.3795,0.3751,0.3827,0.3858,0.387,0.3708,0.3707,0.3705,0.3704,0,0,0.3761,0.376,0.3771,0.3777,0.3778,0.3797,0.3831,0.3847,0.3863,0.3869,0.3898,0.3927,0.3902,0.3909,0.3892,0.392,0.3995,0.3888,0.3888,0.391,0.4072,0.4096,0.4111,0.3977,0.3979,0.3981,0.4073,0,0.3842,0.3899,0.388,0.3938,0.3962,0.3928,0.3957,0.3963,0.3956,0.3977,0.397,0.3992,0.3955,0.396,0.3986,0.398,0.4027,0.3973,0.4006,0.4007,0.4008,0.4126,0.4149,0.4236,0.4085,0.4087,0.4088,0,0.3943,0.3957,0.4019,0.402,0.403,0.4056,0.4073,0.4092,0.4099,0.4092,0.4103,0.4081,0.4116,0.4071,0.4121,0.4084,0.4097,0.4096,0.4099,0.4103,0.4053,0.4135,0.4263,0.4277,0.4106,0.4104,0.4103,0,0.4025,0.4059,0.4101,0.4107,0.4109,0.4129,0.4131,0.4135,0.4148,0.4163,0.4171,0.4189,0.42,0.4215,0.4199,0.4168,0.4252,0.4205,0.425,0.4251,0.427,0.4269,0.4405,0.4275,0.4275,0.4274,0.4274,0,0.4119,0.4159,0.4139,0.4165,0.421,0.4188,0.4233,0.4231,0.4236,0.4263,0.4233,0.4259,0.4236,0.426,0.4248,0.4293,0.4297,0.4294,0.4291,0.4298,0.4299,0.4307,0.4301,0.4278,0.4277,0.4276,0.4276,0,0.4218,0.4206,0.425,0.425,0.4251,0.4284,0.4285,0.431,0.4303,0.4337,0.4344,0.4333,0.4361,0.4347,0.4374,0.4366,0.4426,0.4413,0.4424,0.4421,0.4468,0.4465,0.4615,0.4635,0.449,0.4491,0.4493,0,0.4279,0.4309,0.4314,0.433,0.4334,0.436,0.4374,0.4355,0.4371,0.4384,0.4408,0.4434,0.4453,0.4499,0.4494,0.4516,0.4505,0.4557,0.4508,0.4516,0.451,0.4509,0.4514,0.4567,0.4568,0.457,0.4571,0,0.439,0.4384,0.4405,0.4427,0.4445,0.446,0.4472,0.4488,0.4469,0.4489,0.4518,0.4533,0.4564,0.459,0.4611,0.4613,0.4591,0.4586,0.4598,0.4607,0.4613,0.4614,0.4453,0.4583,0.4582,0.4581,0.458,0.4579,0.4474,0.4501,0.451,0.4536,0.4544,0.4558,0.4583,0.4581,0.4604,0.4628,0.4616,0.465,0.466,0.4685,0.4692,0.4719,0.4699,0.4715,0.472,0.4725,0.4733,0.4608,0.4722,0.4722,0.4722,0.4721,0.4721,0,0.4586,0.4591,0.4615,0.4636,0.4657,0.4634,0.4649,0.4669,0.47,0.471,0.4731,0.4767,0.4793,0.4792,0.4817,0.484,0.483,0.4847,0.4847,0.4849,0.4748,0.4736,0.4855,0.4855,0.4855,0.4855,0.4855,0.4855,0.4647,0.4693,0.4689,0.474,0.4744,0.4779,0.4789,0.4803,0.4812,0.4853,0.4876,0.4875,0.4883,0.4909,0.4933,0.4932,0.4944,0.4966,0.4962,0.4868,0.4855,0.4842,0.4831,0.4968,0.4968,0.506,0.5061,0.5062]}]]